User: anonymous   Login
Location: Unspecified
(0.0000°N, 0.0000°E)
Time: 18:04:03
(UTC+00:00)
Language:

STARLINK-34205 - Orbit

View from above orbital plane
View from above orbital plane
View from above satellite
View from above satellite

Ground track
Ground track

The orbit is defined by the following mean orbital elements,

1 64741U          26145.51337872 +.00000000 +00000-0 +80674-3 0 00007
2 64741  53.1590 184.2231 0001197  82.3458 277.7678 15.30200785    01
Epoch (UTC): 25 May 2026 12:19:15
Eccentricity: 0.0001197
inclination: 53.1590°
perigee height: 474 km
apogee height: 476 km
right ascension of ascending node: 184.2231°
argument of perigee: 82.3458°
revolutions per day: 15.30200785
mean anomaly at epoch: 277.7678°

The dashed part of the orbit path shows where the satellite is in the earth's shadow,  

DLR